When you browse on this site, cookies collect data to enhance your experience and personalize the content and advertising you see.
Visit our Privacy Policy to learn more. By continuing to use the site, you agree to this use of cookies and data.
  • în România
  • Lista ţărilor
  • Pe 7 zile
  • Temperatura apei
  • Hartă satelitară
  • Meteo pe hartă
  • Widget-uri
  • user-avatar
    Intrare

    Meteo pe oră la Barnsley

    Astăzi, 19 Aprilie, Vineri

    Timp Temperatura Precipitaţii Vânt Presiune Umiditate
    00:00 +9°C° 0 mm 1 m/s 761 mmHg 87%
    01:00 +9°C° 0 mm 1 m/s 761 mmHg 88%
    02:00 +8°C° 0 mm 1 m/s 761 mmHg 88%
    03:00 +7°C° 0 mm 2 m/s 761 mmHg 88%
    04:00 +7°C° 0 mm 2 m/s 761 mmHg 88%
    05:00 +7°C° 0 mm 2 m/s 761 mmHg 87%
    06:00 +7°C° 0 mm 2 m/s 762 mmHg 87%
    07:00 +9°C° 0 mm 2 m/s 762 mmHg 81%
    08:00 +12°C° 0 mm 2 m/s 762 mmHg 74%
    09:00 +14°C° 0 mm 2 m/s 762 mmHg 68%
    10:00 +16°C° 0 mm 2 m/s 762 mmHg 63%
    11:00 +17°C° 0 mm 3 m/s 762 mmHg 59%
    12:00 +19°C° 0 mm 3 m/s 762 mmHg 54%
    13:00 +20°C° 0 mm 3 m/s 762 mmHg 52%
    14:00 +20°C° 0 mm 3 m/s 762 mmHg 51%
    15:00 +21°C° 0 mm 3 m/s 762 mmHg 49%
    16:00 +20°C° 0 mm 3 m/s 762 mmHg 54%
    17:00 +19°C° 0 mm 3 m/s 762 mmHg 60%
    18:00 +17°C° 0 mm 3 m/s 762 mmHg 65%
    19:00 +16°C° 0 mm 2 m/s 763 mmHg 70%
    20:00 +14°C° 0 mm 2 m/s 763 mmHg 76%
    21:00 +12°C° 0 mm 1 m/s 763 mmHg 82%
    22:00 +11°C° 0 mm 1 m/s 764 mmHg 82%
    23:00 +11°C° 0 mm 1 m/s 764 mmHg 81%

    Mâine, 20 Aprilie, Sâmbătă

    Timp Temperatura Precipitaţii Vânt Presiune Umiditate
    00:00 +9°C° 0 mm 0 m/s 764 mmHg 81%
    01:00 +9°C° 0 mm 0 m/s 764 mmHg 81%
    02:00 +9°C° 0 mm 0 m/s 764 mmHg 80%
    03:00 +8°C° 0 mm 0 m/s 763 mmHg 80%
    04:00 +8°C° 0 mm 0 m/s 763 mmHg 78%
    05:00 +9°C° 0 mm 0 m/s 764 mmHg 77%
    06:00 +9°C° 0 mm 0 m/s 764 mmHg 75%
    07:00 +11°C° 0 mm 0 m/s 764 mmHg 68%
    08:00 +13°C° 0 mm 0 m/s 763 mmHg 61%
    09:00 +15°C° 0 mm 0 m/s 763 mmHg 54%
    10:00 +19°C° 0 mm 1 m/s 763 mmHg 50%
    11:00 +20°C° 0 mm 1 m/s 763 mmHg 45%
    12:00 +22°C° 0 mm 1 m/s 763 mmHg 40%
    13:00 +22°C° 0 mm 1 m/s 763 mmHg 39%
    14:00 +23°C° 0 mm 1 m/s 762 mmHg 37%
    15:00 +23°C° 0 mm 1 m/s 762 mmHg 36%
    16:00 +22°C° 0 mm 1 m/s 762 mmHg 42%
    17:00 +20°C° 0 mm 2 m/s 762 mmHg 48%
    18:00 +19°C° 0 mm 2 m/s 761 mmHg 54%
    19:00 +18°C° 0 mm 2 m/s 761 mmHg 62%
    20:00 +16°C° 0 mm 2 m/s 761 mmHg 71%
    21:00 +14°C° 0 mm 2 m/s 761 mmHg 79%
    22:00 +14°C° 0 mm 2 m/s 761 mmHg 80%
    23:00 +13°C° 0 mm 2 m/s 761 mmHg 81%

    Poimâine, 21 Aprilie, Duminică

    Timp Temperatura Precipitaţii Vânt Presiune Umiditate
    00:00 +12°C° 0 mm 1 m/s 761 mmHg 82%
    01:00 +12°C° 0 mm 1 m/s 760 mmHg 82%
    02:00 +11°C° 0 mm 1 m/s 760 mmHg 81%
    03:00 +11°C° 0 mm 1 m/s 759 mmHg 80%
    04:00 +11°C° 0 mm 1 m/s 759 mmHg 78%
    05:00 +11°C° 0 mm 1 m/s 758 mmHg 77%
    06:00 +11°C° 0 mm 1 m/s 758 mmHg 75%
    07:00 +13°C° 0 mm 1 m/s 758 mmHg 69%
    08:00 +15°C° 0 mm 1 m/s 757 mmHg 62%
    09:00 +16°C° 0 mm 2 m/s 757 mmHg 56%
    10:00 +18°C° 0 mm 2 m/s 756 mmHg 51%
    11:00 +19°C° 0 mm 2 m/s 756 mmHg 47%
    12:00 +20°C° 0 mm 3 m/s 755 mmHg 43%
    13:00 +20°C° 0 mm 3 m/s 755 mmHg 43%
    14:00 +21°C° 0 mm 3 m/s 754 mmHg 43%
    15:00 +21°C° 0 mm 3 m/s 753 mmHg 43%
    16:00 +20°C° 0 mm 3 m/s 753 mmHg 47%
    17:00 +19°C° 0 mm 3 m/s 752 mmHg 52%
    18:00 +19°C° 0 mm 3 m/s 752 mmHg 56%
    19:00 +17°C° 0 mm 2 m/s 752 mmHg 61%
    20:00 +16°C° 0 mm 2 m/s 752 mmHg 67%
    21:00 +14°C° 0 mm 2 m/s 752 mmHg 72%
    22:00 +14°C° 0 mm 2 m/s 751 mmHg 75%
    23:00 +13°C° 0 mm 2 m/s 751 mmHg 78%

    22 Aprilie, Luni

    Timp Temperatura Precipitaţii Vânt Presiune Umiditate
    00:00 +13°C° 0 mm 2 m/s 751 mmHg 81%
    01:00 +12°C° 0 mm 2 m/s 750 mmHg 82%
    02:00 +10°C° 0 mm 2 m/s 749 mmHg 82%
    03:00 +10°C° 0 mm 2 m/s 749 mmHg 83%
    04:00 +10°C° 0 mm 2 m/s 748 mmHg 83%
    05:00 +9°C° 0 mm 2 m/s 748 mmHg 82%
    06:00 +9°C° 0 mm 2 m/s 747 mmHg 82%
    07:00 +12°C° 0 mm 2 m/s 747 mmHg 76%
    08:00 +13°C° 0 mm 3 m/s 747 mmHg 69%
    09:00 +16°C° 0 mm 3 m/s 747 mmHg 63%
    10:00 +17°C° 0 mm 4 m/s 746 mmHg 58%
    11:00 +19°C° 0 mm 4 m/s 746 mmHg 54%
    12:00 +20°C° 0 mm 5 m/s 745 mmHg 50%
    13:00 +20°C° 0 mm 5 m/s 745 mmHg 49%
    14:00 +20°C° 0 mm 5 m/s 744 mmHg 48%
    15:00 +20°C° 0 mm 5 m/s 744 mmHg 47%
    16:00 +19°C° 0 mm 5 m/s 744 mmHg 53%
    17:00 +17°C° 0 mm 5 m/s 743 mmHg 59%
    18:00 +17°C° 0 mm 4 m/s 743 mmHg 64%
    19:00 +14°C° 0 mm 4 m/s 743 mmHg 67%
    20:00 +13°C° 0 mm 4 m/s 743 mmHg 70%
    21:00 +11°C° 0 mm 3 m/s 743 mmHg 73%
    22:00 +11°C° 0 mm 3 m/s 743 mmHg 76%
    23:00 +10°C° 0 mm 3 m/s 742 mmHg 79%

    23 Aprilie, Marţi

    Timp Temperatura Precipitaţii Vânt Presiune Umiditate
    00:00 +9°C° 0 mm 2 m/s 742 mmHg 82%
    01:00 +9°C° 0 mm 2 m/s 742 mmHg 83%
    02:00 +9°C° 0 mm 3 m/s 742 mmHg 84%
    03:00 +9°C° 0 mm 3 m/s 741 mmHg 85%
    04:00 +9°C° 0 mm 3 m/s 741 mmHg 83%
    05:00 +9°C° 0 mm 3 m/s 741 mmHg 81%
    06:00 +9°C° 0 mm 3 m/s 741 mmHg 79%
    07:00 +10°C° 0 mm 4 m/s 741 mmHg 74%
    08:00 +11°C° 0 mm 4 m/s 741 mmHg 69%
    09:00 +13°C° 0 mm 5 m/s 741 mmHg 65%
    10:00 +14°C° 0 mm 5 m/s 741 mmHg 62%
    11:00 +15°C° 0 mm 5 m/s 741 mmHg 59%
    12:00 +16°C° 0 mm 5 m/s 741 mmHg 56%
    13:00 +16°C° 0 mm 5 m/s 740 mmHg 56%
    14:00 +16°C° 0 mm 5 m/s 740 mmHg 56%
    15:00 +16°C° 0 mm 5 m/s 740 mmHg 55%
    16:00 +15°C° 0 mm 5 m/s 740 mmHg 60%
    17:00 +14°C° 0 mm 5 m/s 740 mmHg 64%
    18:00 +13°C° 0 mm 4 m/s 740 mmHg 68%
    19:00 +11°C° 0 mm 4 m/s 740 mmHg 75%
    20:00 +10°C° 0 mm 3 m/s 740 mmHg 81%
    21:00 +8°C° 0 mm 2 m/s 740 mmHg 87%
    22:00 +8°C° 0 mm 2 m/s 740 mmHg 88%
    23:00 +7°C° 0 mm 2 m/s 740 mmHg 89%

    24 Aprilie, Miercuri

    Timp Temperatura Precipitaţii Vânt Presiune Umiditate
    00:00 +8°C° 0 mm 1 m/s 740 mmHg 90%
    01:00 +8°C° 0 mm 1 m/s 740 mmHg 91%
    02:00 +8°C° 0 mm 1 m/s 740 mmHg 92%
    03:00 +7°C° 0 mm 1 m/s 740 mmHg 92%
    04:00 +7°C° 0 mm 2 m/s 740 mmHg 92%
    05:00 +7°C° 0 mm 2 m/s 739 mmHg 91%
    06:00 +7°C° 0 mm 2 m/s 739 mmHg 91%
    07:00 +9°C° 0 mm 2 m/s 739 mmHg 85%
    08:00 +11°C° 0 mm 3 m/s 739 mmHg 80%
    09:00 +12°C° 0 mm 4 m/s 739 mmHg 74%
    10:00 +13°C° 0.3 mm 4 m/s 740 mmHg 75%
    11:00 +14°C° 0.3 mm 4 m/s 740 mmHg 75%
    12:00 +15°C° 0.3 mm 5 m/s 740 mmHg 76%
    13:00 +15°C° 0.4 mm 5 m/s 740 mmHg 74%
    14:00 +15°C° 0.4 mm 5 m/s 740 mmHg 73%
    15:00 +15°C° 0.4 mm 6 m/s 740 mmHg 71%
    16:00 +15°C° 0 mm 5 m/s 740 mmHg 69%
    17:00 +14°C° 0 mm 5 m/s 740 mmHg 67%
    18:00 +14°C° 0 mm 5 m/s 741 mmHg 65%
    19:00 +13°C° 0 mm 5 m/s 741 mmHg 67%
    20:00 +12°C° 0 mm 5 m/s 741 mmHg 68%
    21:00 +11°C° 0 mm 4 m/s 742 mmHg 69%
    22:00 +11°C° 0 mm 4 m/s 742 mmHg 72%
    23:00 +10°C° 0 mm 4 m/s 742 mmHg 75%
    Arată mai mult